"Pseudo-MPEC" for Sar2682

Created 2023 Mar 27 10:22:27 UT using Find_Orb

Click here for an explanation of pseudo-MPECs

 
 Astrometry: 
     Sar2682  C2023 03 20\K_^7+)])!hCo?ANH`::6pqOuY\AstrometryyFB5q[sbfVyJWhPV00
     Sar2682  C2023 03 20!7Iv?q\YeL)\!Yo^X;ZGgo@O\wO`.qj/.9+'0A:OmC2I'a4wu5djV00
     Sar2682* C2023 03 26V9-hfo9VY!I(Y`B/-@uVvVqeSl=]0W=qy^gmnFndQQJM`Xm5hDl`K88
     Sar2682  C2023 03 26/yRc=itNakME2t9XiWw@/!mI3;9__H^Hredacted;1click!l+OSK88
     Sar2682 KC2023 03 26QWRcQkvt#s:fNbib#(gZdL(u't[1'fhY)s%%n(R.H'J7CMtaC;A-K88
     Sar2682 KC2023 03 26A#]#xr4%^_gOGCy,HZV9#^g[)_C$=';R;tjq31GQXDQ2*SF;m$y4K88
     Sar2682 KC2023 03 26B4=\Wvy7#nishYDVEk-#j9itl659:hN6#ErZAqry?;L.OptKQ,AZK88
     Sar2682 KC2023 03 26e1p$%8,;;RhPM9LYqRAFI_te0LK)G+n2Ur7n%,c1Nm^hoeGA=hAfK88
     Sar2682 KC2023 03 26M+7BV@ChUq;FetR)+'viIl.pgL8.l?JRVF.Qi$sDv4ja.wj9XA]'K88
     Sar2682 KC2023 03 26gkQTqibhere.gp3XI#]C!3WFtfC?YU:p\'3[3Vw+ddU(R4,UKO0^K88
     Sar2682 KC2023 03 26,V2LS+`.EVDLrWa`g_kQ#G4forU5@d`IuxU+d\9pBGoxFvKW]1EvK88
     Sar2682 KC2023 03 26v#dU8^@R-;*=oy9eu;ZMa0xnc=j@njCXF6qfB$[Mu[BNOaIjuQ+,K88
     Sar2682 KC2023 03 26)#mAD3550G5FrUiwjL%8!Ty$xtU)Z_-Z,(Ysqn)]P78sh(i:-'oZK88
     Sar2682 KC2023 03 26t:.ODih+#N3\G**Qg[mY.5;wP#XE?ls3I1ikG@))AghLD/a7ioM^K88
     Sar2682 KC2023 03 26FW;XV4JPH%SYHDPo3S:!AfyP(6?Q=XRNsd+.i50nhCfsf_-?Sb`s204
     Sar2682 KC2023 03 26.13630213 22 40.478+20 17 08.84   ~3Q47x20.0 GXNEOCPY00
     Sar2682 KC2023 03 26a6!Q0SIh_Q;I6#8K3,mW#Z*isk.L-HEn^!n.#6mT,pk//pwodTLx204
     Sar2682 KC2023 03 26.14352113 22 31.039+20 14 14.31   ~3Q47 20.3 GXNEOCPY00
     Sar2682 KC2023 03 268oq*Ww7%B`dC:2+=#xK/oprXgoMQ#TOIF'w7,?QJ=E7H:!h#J^u(H21
     Sar2682 KC2023 03 26KE/Hc+d3+n(0Ha%?-A#0Bk3l*bNUa^20GqN4#m(+#]-bL%$n)hjNH21
     Sar2682 KC2023 03 26U7XqehY#TiKKq9NBZA%gexplanation:An?Eg`QBw/9=wr@Q;EW3H21
     Sar2682 KC2023 03 26.15063313 22 21.746+20 11 21.70   ~3Q47 19.6 GXNEOCPY00
     Sar2682 KC2023 03 26_+Q[?M`ag[U`ZqcG1:i/I(!UF,plc)+I5fBb))a^iA/,hAF1*J90H21
     Sar2682 mC2023 03 26.30153813 19 13.746+19 07 51.38   ~3Q7b 20.21GVNEOCPI52
     Sar2682 mC2023 03 26.30176613 19 13.451+19 07 45.44   ~3Q7b 20.17GVNEOCPI52
     Sar2682 mC2023 03 26.30402513 19 10.560+19 06 50.29   ~3Q7b 19.91GVNEOCPI52
     Sar2682 mC2023 03 26.30424213 19 10.222+19 06 44.53   ~3Q7b 19.96GVNEOCPI52
     Sar2682 mC2023 03 27.22321713 00 39.535+12 46 00.12   ~3R5q 20.08GVNEOCPI52
     Sar2682 mC2023 03 27.22341013 00 39.316+12 45 55.62   ~3R5q 20.34GVNEOCPI52
     Sar2682 mC2023 03 27.22361713 00 39.067+12 45 50.47   ~3R5q 19.86GVNEOCPI52
     Sar2682 mC2023 03 27.22381113 00 38.830+12 45 45.86   ~3R5q 20.15GVNEOCPI52
     Sar2682 KC2023 03 27%n01?VOHaR7MtyS$(nL5XW!Yh+)\o.*%sI\LCTcK)cXaEM#K]*N^734
     Sar2682 KC2023 03 27ciFR8T]'`T*2Q8Pu9[\8b:$w,6eIYeUrsljSD^?uQoxb3cUuWsS.734
     Sar2682 KC2023 03 27u`D:c$%rPxe@Rrdkk9BakH#$eXSB+a+!Ot-y6]QU#^'AOs[K4Ls7734
     Sar2682 KC2023 03 27+9J85US@6TJ0L1d=oorLSn(M)Sa/'xn@Ha/X:PnITXueB848eak?734

Station data:
(204) Schiaparelli Observatory  (N45.867930 E8.770800)  Italy.  Observer L.
   Buzzi. 0.60-m f/4.64 Newtonian + CCD0.84-m f/3.5 reflector + CCD.
(734) Farpoint Observatory, Eskridge  (N38.890104 W96.001400)  US/Kansas.
   Observer G. Hug. 0.69-m reflector + CCD.
(H21) Astronomical Research Observatory, Westfield  (N39.483054 W87.968270)
   US/Illinois.  Observer R. Holmes. Measurers S. Foglia, L. Buzzi, T.
   Linder, R. Holmes. 0.76-m f/3.0 astrograph + CCD0.81-m f/4.0 astrograph +
   CCD0.61-m f/4.5 astrograph + CCD0.40-m f/5.32 astrograph + CCD.
(I52) Steward Observatory, Mt. Lemmon Station  (N32.442544 W110.788920)
   US/Arizona.  Observers T. A. Pruyne, B. M. Africano, E. J. Christensen, G.
   A. Farneth, D. C. Fuls, A. R. Gibbs, A. D. Grauer, H. Gröller, J. A.
   Johnson, R. A. Kowalski, S. M. Larson, G. J. Leonard, D. Rankin, R. L.
   Seaman, F. C. Shelly, K. W. Wierzchoś. 1.0-m reflector + CCD.
(K88) GINOP-KHK, Piszkéstető  (N47.917619 E19.893600)  Hungary.  Observer K.
   Sárneczky. 0.60-m Schmidt + CCD.
(V00) Kitt Peak-Bok  (N31.963125 W111.600190)  US/Arizona.  Observers T. A.
   Pruyne, B. M. Africano, E. J. Christensen, G. A. Farneth, D. C. Fuls, A.
   R. Gibbs, A. D. Grauer, H. Gröller, J. A. Johnson, R. A. Kowalski, S. M.
   Larson, G. J. Leonard, D. Rankin, R. L. Seaman, F. C. Shelly, K. W.
   Wierzchoś. 2.25-m reflector + CCD.
(Y00) SONEAR Observatory, Oliveira  (S20.715080 W44.784960)  Brazil.
   Observers C. Jacques, E. Pimentel, J. Barros. Measurer C. Jacques. 0.45-m
   f/2.9 astrograph + CCD.

Orbital elements:  Sar2682
   Perihelion 2023 Feb 3.58624 +/- 0.0649 TT = 14:04:11 (JD 2459979.08624)
Epoch 2023 Mar 27.0 TT = JDT 2460030.5   Earth MOID: 0.0647   Ma: 0.0385
M  33.03944046 +/- 0.09             (J2000 ecliptic)             AutoNEOCP
n   0.64261868 +/- 0.001            Peri.  120.05037 +/- 0.06
a   1.32994540 +/- 0.00138          Node     8.03330 +/- 0.00024
e   0.2857742 +/- 0.000655          Incl.   29.42612 +/- 0.038
P   1.53/560.20d           H 25.08  G  0.15   U  8.1
q 0.94988131 +/- 0.000115    Q 1.71000950 +/- 0.00265
34 of 35 observations 2023 Mar. 20-27; mean residual 0".46
Residuals in arcseconds: 
230320 V00  .53+  .11-    230326 K88  .20-  .03-    230326 I52  .03+  .20-    
230320 V00  .47-  .02+    230326 K88  .11-  .03+    230326 I52  .60+  .06-    
230326 K88  1.3-  .79-    230326 204  .12-  .14-    230326 I52  .19-  .50-    
230326 K88  .28-  .48+    230326 Y00( 1.7-  1.0-)   230327 I52  .07-  .40-    
230326 K88  .04-  .47-    230326 204  .25+  .02+    230327 I52  .15+  .10-    
230326 K88  .58+  1.1+    230326 Y00  .76-  .12-    230327 I52  .17+  .11-    
230326 K88  .37-  1.2+    230326 H21  .12+  .39-    230327 I52  .14+  .11+    
230326 K88  .53+  .18+    230326 H21  .22-  .25-    230327 734  .52-  .31-    
230326 K88  .33+  .37+    230326 H21  .11-  .28-    230327 734  .83-  .23-    
230326 K88  .67+  1.3+    230326 Y00  .27+  .25+    230327 734  .58+  .61+    
230326 K88  .13+  .20+    230326 H21  .05-  .22-    230327 734  .85+  .09+    
230326 K88  .11+  .35+    230326 I52  .02+  .16+    

Ephemerides (geocentric):
Date (UTC) HH   RA             Dec           delta  r     elong  mag " sig PA
---- --------  ------------   ------------  ------ ------ -----  --- --------
2023 03 27 10  12 56 49.157   +11 26 30.27  .06529 1.0605 163.7 20.2 .085   9
2023 03 27 11  12 56 01.085   +11 09 13.42  .06533 1.0607 164.1 20.2 .086   9
2023 03 27 12  12 55 13.168   +10 51 57.38  .06537 1.0608 164.4 20.2 .088  10
2023 03 27 13  12 54 25.408   +10 34 42.25  .06542 1.0610 164.8 20.1 .090  10
2023 03 27 14  12 53 37.805   +10 17 28.12  .06547 1.0612 165.1 20.1 .091  11
2023 03 27 15  12 52 50.359   +10 00 15.08  .06552 1.0613 165.5 20.1 .093  11
2023 03 27 16  12 52 03.071   +09 43 03.22  .06558 1.0615 165.8 20.1 .095  12
2023 03 27 17  12 51 15.942   +09 25 52.63  .06563 1.0616 166.2 20.1 .096  13
2023 03 27 18  12 50 28.971   +09 08 43.39  .06569 1.0618 166.5 20.1 .098  13
2023 03 27 19  12 49 42.160   +08 51 35.61  .06575 1.0619 166.9 20.1 .100  14
2023 03 27 20  12 48 55.508   +08 34 29.35  .06582 1.0621 167.2 20.1 .102  14
2023 03 27 21  12 48 09.017   +08 17 24.72  .06588 1.0623 167.6 20.1 .104  15
2023 03 27 22  12 47 22.686   +08 00 21.78  .06595 1.0624 167.9 20.1 .106  15
2023 03 27 23  12 46 36.516   +07 43 20.63  .06602 1.0626 168.3 20.0 .107  16
2023 03 28 00  12 45 50.508   +07 26 21.35  .06610 1.0627 168.6 20.0 .109  16
2023 03 28 01  12 45 04.661   +07 09 24.02  .06617 1.0629 168.9 20.0 .111  17
2023 03 28 02  12 44 18.975   +06 52 28.72  .06625 1.0630 169.3 20.0 .113  17
2023 03 28 03  12 43 33.452   +06 35 35.53  .06633 1.0632 169.6 20.0 .115  17
2023 03 28 04  12 42 48.092   +06 18 44.53  .06641 1.0634 170.0 20.0 .117  18
2023 03 28 05  12 42 02.894   +06 01 55.80  .06650 1.0635 170.3 20.0 .119  18
2023 03 28 06  12 41 17.859   +05 45 09.40  .06659 1.0637 170.6 20.0 .121  19
2023 03 28 07  12 40 32.988   +05 28 25.42  .06668 1.0638 171.0 20.0 .124  19
2023 03 28 08  12 39 48.279   +05 11 43.94  .06677 1.0640 171.3 20.0 .126  20
2023 03 28 09  12 39 03.735   +04 55 05.01  .06686 1.0642 171.6 19.9 .128  20
2023 03 28 10  12 38 19.354   +04 38 28.72  .06696 1.0643 171.9 19.9 .130  21
2023 03 28 11  12 37 35.137   +04 21 55.13  .06706 1.0645 172.3 19.9 .132  21
2023 03 28 12  12 36 51.084   +04 05 24.32  .06716 1.0646 172.6 19.9 .134  21
2023 03 28 13  12 36 07.196   +03 48 56.34  .06726 1.0648 172.9 19.9 .137  22
2023 03 28 14  12 35 23.472   +03 32 31.27  .06737 1.0650 173.2 19.9 .139  22
2023 03 28 15  12 34 39.912   +03 16 09.16  .06748 1.0651 173.5 19.9 .141  23
2023 03 28 16  12 33 56.518   +02 59 50.09  .06759 1.0653 173.8 19.9 .143  23
2023 03 28 17  12 33 13.287   +02 43 34.11  .06770 1.0654 174.1 19.9 .146  23
2023 03 28 18  12 32 30.222   +02 27 21.29  .06782 1.0656 174.4 19.9 .148  24
2023 03 28 19  12 31 47.321   +02 11 11.68  .06793 1.0657 174.7 19.8 .151  24
2023 03 28 20  12 31 04.585   +01 55 05.35  .06805 1.0659 175.0 19.8 .153  24
2023 03 28 21  12 30 22.014   +01 39 02.34  .06818 1.0661 175.3 19.8 .155  25
2023 03 28 22  12 29 39.607   +01 23 02.71  .06830 1.0662 175.6 19.8 .158  25
2023 03 28 23  12 28 57.366   +01 07 06.53  .06843 1.0664 175.8 19.8 .160  25
2023 03 29 00  12 28 15.289   +00 51 13.83  .06855 1.0665 176.1 19.8 .163  26
2023 03 29 01  12 27 33.377   +00 35 24.66  .06868 1.0667 176.3 19.8 .165  26
2023 03 29 02  12 26 51.630   +00 19 39.09  .06882 1.0669 176.5 19.8 .168  26
2023 03 29 03  12 26 10.047   +00 03 57.16  .06895 1.0670 176.8 19.8 .170  27
2023 03 29 04  12 25 28.629   -00 11 41.09  .06909 1.0672 176.9 19.8 .173  27
2023 03 29 05  12 24 47.376   -00 27 15.62  .06923 1.0673 177.1 19.8 .176  27
2023 03 29 06  12 24 06.287   -00 42 46.37  .06937 1.0675 177.2 19.8 .178  28
2023 03 29 07  12 23 25.363   -00 58 13.30  .06951 1.0677 177.3 19.8 .181  28
2023 03 29 08  12 22 44.602   -01 13 36.38  .06966 1.0678 177.4 19.8 .183  28
2023 03 29 09  12 22 04.006   -01 28 55.56  .06981 1.0680 177.4 19.8 .186  29